Weather Service Report


463 
ASUS45 KTFX 261810
RWRMT 
MONTANA REGIONAL WEATHER ROUNDUP
NATIONAL WEATHER SERVICE GREAT FALLS MT
1200 PM MDT TUE JUL 26 2016

NOTE: "FAIR" INDICATES FEW OR NO CLOUDS BELOW 12000 FEET WITH NO
SIGNIFICANT WEATHER AND/OR OBSTRUCTIONS TO VISIBILITY.

MTZ001>007-043-261900-
WEST OF THE DIVIDE
  
CITY           SKY/WX    TMP DP  RH WIND       PRES   REMARKS
KALISPELL      MOSUNNY   80  55  42 N18       30.08R                  
MISSOULA       MOSUNNY   80  45  28 CALM      30.09F                  
BUTTE          SUNNY     79  34  19 VRB5      30.20F                  
MULLAN PASS    MOSUNNY   69  47  45 VRB5      30.25R                  
ANACONDA         N/A     73  52  46 N7        30.15S                  
DEER LODGE       N/A     73  48  40 N3        30.19S                  
EUREKA           N/A     63  57  82 W9        30.17R                  
HAMILTON         N/A     73  48  40 N8        30.09F                  
LIBBY            N/A     79  52  38 N9G18     30.09F                  
PLAINS           N/A     84  48  28 CALM      30.04F                  
RONAN            N/A     80  54  40 W2        30.11F                  
$$

MTZ008-052>055-261900-
SOUTHWEST MONTANA
  
CITY           SKY/WX    TMP DP  RH WIND       PRES   REMARKS
BOZEMAN        SUNNY     82  49  31 VRB5      30.15F                  
DILLON         SUNNY     78  50  37 N6        30.16F                  
W YELLOWSTONE  SUNNY     77  27  15 E3        30.28F                  
ENNIS          SUNNY     82  36  18 CALM      30.22S                  
THREE FORKS      N/A     79  18  10 E5        30.12F                  
TWIN BRIDGES     N/A     78  44  29 W3        30.13F                  
$$

MTZ009-010-012-014-046-048-049-054-261900-
EAST SLOPES AND CENTRAL MONTANA
  
CITY           SKY/WX    TMP DP  RH WIND       PRES   REMARKS
CUT BANK       SUNNY     80  55  42 S9        30.09F                  
GREAT FALLS    SUNNY     80  49  33 E7        30.10S                  
MALMSTROM AFB  SUNNY     81  50  34 S3        30.09F                  
HELENA         SUNNY     80  50  34 NE7       30.10F                  
CHOTEAU          N/A     81  55  41 SE7       30.13S                  
CONRAD           N/A     81  58  45 E6        30.11F                  
$$

MTZ011-013-016-021-045-047-050-051-261900-
NORTH CENTRAL MONTANA
  
CITY           SKY/WX    TMP DP  RH WIND       PRES   REMARKS
HAVRE          SUNNY     81  59  47 E13       30.05S                  
LEWISTOWN      SUNNY     79  52  38 NW3       30.13S                  
N BAR RANCH      N/A     81  45  28 NW3       30.15F                  
CHINOOK          N/A     79  61  53 E12G17    30.05F                  
$$

MTZ017>020-022>027-061-062-261900-
NORTHEAST MONTANA
  
CITY           SKY/WX    TMP DP  RH WIND       PRES   REMARKS
GLASGOW        CLOUDY    76  62  62 NE14      30.08R                  
JORDAN           N/A     83  53  35 SE9G23    30.07S                  
SIDNEY         CLOUDY    72  63  73 NE6       30.09R                  
WOLF POINT     CLOUDY    81  60  48 E12       30.08S                  
PLENTYWOOD       N/A     72  57  60 NE8       30.11S                  
POPLAR           N/A     75  61  60 NE9       30.10R                  
SCOBEY           N/A     74  53  47 NE6       30.12R                  
$$

MTZ028>42-056>058-261900-
SOUTHCENTRAL AND SOUTHEAST MONTANA
  
CITY           SKY/WX    TMP DP  RH WIND       PRES   REMARKS
BAKER          MOSUNNY   79  57  46 E10       30.08S                  
BILLINGS       MOSUNNY   83  47  28 SE6       30.09F                  
LIVINGSTON     SUNNY     85  45  24 CALM      30.13F                  
MILES CITY     SUNNY     83  53  35 VRB3      30.05F                  
FORSYTH          N/A     82  55  39 S5        30.04F                  
LAUREL           N/A     83  48  29 SE2       30.08F                  
ROUNDUP          N/A     81  48  31 S1        30.00F                  
$$

REGIONAL REPORTS...DAKOTAS
  
CITY           SKY/WX    TMP DP  RH WIND       PRES   REMARKS
WILLISTON      CLOUDY    78  61  55 N12       30.09R                  
MINOT          CLOUDY    82  64  54 NW5       30.05S                  
DICKINSON      CLOUDY    69  64  84 N10       30.04R                  
BEACH            N/A     70  63  78 NE10      30.12S                  
CROSBY         PTSUNNY   68  64  88 NE3       30.13S                  
WATFORD CITY     N/A    N/A N/A N/A MISG        N/A                   
BISMARCK       LGT RAIN  73  68  84 N13       30.01F                  
GRAND FORKS    MOSUNNY   85  64  49 N6        29.97R                  
FARGO          MOSUNNY   80  68  66 CALM      29.95F                  
BUFFALO SD       N/A     75  62  64 N10       30.00R                  
RAPID CITY     SUNNY     81  56  42 SE8       30.05S                  
$$

REGIONAL REPORTS...WYOMING/IDAHO/WASHINGTON
  
CITY           SKY/WX    TMP DP  RH WIND       PRES   REMARKS
GILLETTE       SUNNY     83  52  34 NE5       30.11F                  
SHERIDAN       SUNNY     85  44  23 SE3       30.09F                  
BUFFALO WY     SUNNY     83  44  25 NE9       30.17F                  
CODY           SUNNY     81  48  32 NE12      30.17S                  
YELLOWSTONE LA   N/A     66  40  38 VRB6      30.38F                  
IDAHO FALLS    SUNNY     85  40  20 N7        30.12F                  
SALMON         SUNNY     77  45  31 NW3       30.08F                  
BOISE          SUNNY     85  44  23 W5        30.01S                  
SPOKANE        PTSUNNY   79  53  40 VRB7      30.07R                  
$$

REGIONAL REPORTS...ALBERTA
  
CITY           SKY/WX    TMP DP  RH WIND       PRES   REMARKS
EDMONTON       MOSUNNY   72  57  60 SE6       30.06F                  
CALGARY        MOSUNNY   73  54  49 N13       30.11F                  
LETHBRIDGE     MOSUNNY   75  63  64 NE8       30.07F                  
MEDICINE HAT   MOSUNNY   86  59  39 VRB5      30.06F                  
$$

REGIONAL REPORTS...SASKATCHEWAN
  
CITY           SKY/WX    TMP DP  RH WIND       PRES   REMARKS
SWIFT CURRENT  PTSUNNY   72  59  64 SE10      30.13R                  
REGINA         PTSUNNY   73  55  53 NE3       30.12R                  
SASKATOON      PTSUNNY   75  46  35 E9        30.14S                  
$$
  

Return to Home page


Western Regional Climate Center, wrcc@dri.edu